Regional Weather Roundup
Issued by NWS

Home | Current Version | Previous Version | Text Only | Print | Product List | Glossary Off
Versions: 1 2 3 4 5 6 7 8 9 10 11 12 13 14 15 16 17 18 19 20 21 22 23 24 25 26 27 28 29 30 31 32 33 34 35 36 37 38 39 40 41 42 43 44 45 46 47 48 49 50

000
ASUS43 KLMK 300902
RWRKY
KENTUCKY REGIONAL WEATHER ROUNDUP
NATIONAL WEATHER SERVICE LOUISVILLE KY
500 AM EDT MON MAR 30 2015

NOTE "FAIR" INDICATES FEW OR NO CLOUDS BELOW 12,000 FEET
WITH NO SIGNIFICANT WEATHER AND/OR OBSTRUCTIONS TO VISIBILITY.

KYZ001>023-026-027-061>063-070>075-301000-
WESTERN AND SOUTH CENTRAL KENTUCKY

CITY           SKY/WX    TMP DP  RH WIND       PRES   REMARKS
PADUCAH        CLEAR     50  42  74 NW7       30.08R
HENDERSON      CLEAR     45  39  81 NW8       30.05R
OWENSBORO      CLEAR     48  43  83 NW8       30.05R
HOPKINSVILLE   NOT AVBL
BOWLING GREEN  PTCLDY    48  44  86 CALM      30.05S
GLASGOW        NOT AVBL
$$

KYZ024-025-028>034-038-045-046-053-301000-
NORTH CENTRAL KENTUCKY

CITY           SKY/WX    TMP DP  RH WIND       PRES   REMARKS
LOUISVILLE/SDF PTCLDY    51  41  68 NW10      30.01S
LOUISVILLE/LOU CLEAR     49  41  74 NW7       30.01S
FORT KNOX      NOT AVBL
$$

KYZ035>037-039>044-047>052-055>060-089>105-301000-
NORTHEAST KENTUCKY

CITY           SKY/WX    TMP DP  RH WIND       PRES   REMARKS
LEXINGTON      CLOUDY    48  43  82 W10       30.00R
COVINGTON      PTCLDY    44  35  70 NW13      29.98R
FRANKFORT      PTCLDY    49  41  74 W10       29.99R
$$

KYZ054-064>069-076>088-106>120-301000-
SOUTHEAST KENTUCKY

CITY           SKY/WX    TMP DP  RH WIND       PRES   REMARKS
JACKSON        CLOUDY    44  42  93 VRB7      30.00F
LONDON         CLOUDY    47  41  80 W5        30.03F
SOMERSET       NOT AVBL
MIDDLESBORO    DRIZZLE   46  46 100 CALM      30.05S
MONTICELLO     CLOUDY    48  45  90 SW8       30.06F
$$




USA.gov is the U.S. government's official web portal to all federal, state and local government web resources and services.